Location: Fontevrault
(47.1823°N, 0.0493°E)
Time: 15:35:37
(UTC+00:00)

Envisat - Visible Passes

Search period start: 29 September 2022 00:00
Search period end: 09 October 2022 00:00
Orbit: 764 x 765 km, 98.2° (Epoch: 28 September)

Date Brightness Start Highest point End Pass type
(mag) Time Alt. Az. Time Alt. Az. Time Alt. Az.
29 Sep 5.6 03:10:43 10° NE 03:14:06 18° E 03:17:28 10° SE visible
29 Sep 3.0 04:48:32 10° N 04:53:36 67° WNW 04:58:37 10° SSW visible
30 Sep 3.5 04:11:35 10° NNE 04:16:38 60° E 04:21:38 10° S visible
01 Oct 4.9 03:35:03 10° NE 03:39:28 29° E 03:43:51 10° SSE visible
01 Oct 3.4 05:13:50 10° N 05:18:36 41° WNW 05:23:18 10° SW visible
02 Oct 5.8 02:59:30 10° ENE 03:02:06 14° E 03:04:41 10° ESE visible
02 Oct 2.9 04:36:39 10° NNE 04:41:46 83° WNW 04:46:50 10° SSW visible
03 Oct 4.0 03:59:48 10° NNE 04:04:44 47° E 04:09:37 10° S visible
04 Oct 5.2 03:23:29 10° NE 03:27:31 23° E 03:31:30 10° SE visible
04 Oct 3.2 05:01:52 10° N 05:06:47 51° WNW 05:11:41 10° SW visible
05 Oct 6.0 02:48:55 10° ENE 02:50:04 11° E 02:51:13 10° E visible
05 Oct 3.1 04:24:47 10° NNE 04:29:54 79° ESE 04:34:59 10° S visible
06 Oct 4.4 03:48:04 10° NNE 03:52:49 38° E 03:57:31 10° SSE visible
06 Oct 3.8 05:27:16 10° N 05:31:44 32° WNW 05:36:10 10° SW visible
07 Oct 5.5 03:12:00 10° NE 03:15:31 18° E 03:19:01 10° SE visible
07 Oct 3.0 04:49:56 10° N 04:54:58 64° WNW 04:59:59 10° SSW visible
08 Oct 3.4 04:12:57 10° NNE 04:18:01 63° ESE 04:23:03 10° S visible
